Location: Colebrook
(42.0017°N, 73.0973°W)
Time: 16:53:57
(UTC-05:00)

Vanguard 2 - Pass Details

Date: 29 October 2021
Orbit: 554 x 2936 km, 32.9° (Epoch: 04 December)

Event Time Altitude Azimuth Distance (km) Brightness Sun altitude
Exits shadow 03:13:59 24° 121° (ESE) 2,561 10.3 -45.6°
Drops below altitude 10° 03:16:36 10° 111° (ESE) 3,226 11.0 -45.2°
Sets 03:18:57 0° 106° (ESE) 3,937 11.6 -44.8°
